Ardmore, OK

1:08 AM CST on December 17, 2017 (GMT -0600)
Ardmore Municipal

Weather History for KADM - December, 2012

Change the Weather History Date:

Thursday, December 6, 2012

  Actual Average Record
Temperature  
Mean Temperature 52 °F -  
Max Temperature 68 °F 55 °F 71 °F (1998)
Min Temperature 37 °F 36 °F 18 °F (2013)
Degree Days  
Heating Degree Days 12    
Growing Degree Days 2 (Base 50)    
Moisture  
Dew Point 43 °F    
Average Humidity 92    
Maximum Humidity 100    
Minimum Humidity 49    
Precipitation  
Precipitation 0.00 in - - ()
Sea Level Pressure  
Sea Level Pressure 29.93 in    
Wind  
Wind Speed 2 mph (SE)    
Max Wind Speed 15 mph    
Max Gust Speed 23 mph    
Visibility 8 miles    
Events      
Averages and records for this station are not official NWS values.
T = Trace of Precipitation, MM = Missing Value Source: NWS Daily Summary

Daily Weather History Graph

Daily Weather History Graph

Search for Another Location

Airport or City:

Trip Planner

Search our weather history database for the weather conditions in past years. The results will help you decide how hot, cold, wet, or windy it might be!

Date:

Astronomy

Dec. 06, 2012 Rise Set
Actual Time 7:20 AM CST 5:18 PM CST
Civil Twilight 6:53 AM CST 5:45 PM CST
Nautical Twilight 6:21 AM CST 6:16 PM CST
Astronomical Twilight 5:51 AM CST 6:47 PM CST
Moon No Moon Rise 12:28 PM CST (12/6)
Length of Visible Light 10h 52m
Length of Day
9h 57m
Waning Gibbous, 49% of the Moon is Illuminated
Dec 6
Waning Gibbous
Dec 13
New
Dec 19
First Quarter
Dec 28
Full
Jan 4
Last Quarter

Hourly Weather History & Observations

Time (CST) Temp. Dew Point Humidity Pressure Visibility Wind Dir Wind Speed Gust Speed Precip Events Conditions
12:15 AM 41.0 °F 39.2 °F 93% 30.04 in 10.0 mi Calm Calm - N/A   Clear
12:35 AM 41.0 °F 41.0 °F 100% 30.03 in 10.0 mi Calm Calm - N/A   Clear
12:55 AM 39.2 °F 39.2 °F 100% 30.02 in 7.0 mi Calm Calm - N/A   Scattered Clouds
1:15 AM 41.0 °F 41.0 °F 100% 30.02 in 5.0 mi Calm Calm - N/A   Mostly Cloudy
2:35 AM 37.4 °F 37.4 °F 100% 30.00 in 7.0 mi Calm Calm - N/A   Clear
2:55 AM 42.8 °F 42.8 °F 100% 29.99 in 7.0 mi Calm Calm - N/A   Clear
3:15 AM 39.2 °F 39.2 °F 100% 29.99 in 3.0 mi Calm Calm - N/A   Clear
3:35 AM 41.0 °F 41.0 °F 100% 29.98 in 7.0 mi Calm Calm - N/A   Mostly Cloudy
3:55 AM 39.2 °F 37.4 °F 93% 29.96 in 4.0 mi Calm Calm - N/A   Scattered Clouds
4:15 AM 37.4 °F 37.4 °F 100% 29.95 in 7.0 mi Calm Calm - N/A   Scattered Clouds
4:35 AM 41.0 °F 41.0 °F 100% 29.95 in 7.0 mi Calm Calm - N/A   Scattered Clouds
4:55 AM 41.0 °F 41.0 °F 100% 29.94 in 5.0 mi Calm Calm - N/A   Overcast
5:15 AM 42.8 °F 42.8 °F 100% 29.95 in 7.0 mi Calm Calm - N/A   Overcast
5:35 AM 44.6 °F 44.6 °F 100% 29.95 in 7.0 mi Calm Calm - N/A   Overcast
1:55 PM 68.0 °F 50.0 °F 52% 29.79 in 10.0 mi SSE 15.0 mph 23.0 mph N/A   Clear
2:55 PM 68.0 °F 48.2 °F 49% 29.78 in 10.0 mi SSE 15.0 mph 21.9 mph N/A   Clear
10:35 PM 53.6 °F 50.0 °F 88% 29.83 in 10.0 mi ESE 6.9 mph - N/A   Clear
10:55 PM 53.6 °F 50.0 °F 88% 29.83 in 10.0 mi ESE 8.1 mph - N/A   Clear
11:15 PM 53.6 °F 50.0 °F 88% 29.83 in 10.0 mi ESE 5.8 mph - N/A   Clear
11:35 PM 51.8 °F 50.0 °F 94% 29.83 in 10.0 mi East 5.8 mph - N/A   Clear
11:55 PM 51.8 °F 48.2 °F 88% 29.83 in 10.0 mi ESE 5.8 mph - N/A   Clear